owner,sensor,date,latitude,longitude,air_temperature,qcFlag 
DISL,ioos:station:DISL:MHPA:1,2017-05-01T00:00:00Z,30.6671,-87.9365,20.2,1111122 
DISL,ioos:station:DISL:MHPA:1,2017-05-01T00:30:00Z,30.6671,-87.9365,20.4,1111122 
DISL,ioos:station:DISL:MHPA:1,2017-05-01T01:00:00Z,30.6671,-87.9365,20.94,1111122 
DISL,ioos:station:DISL:MHPA:1,2017-05-01T01:30:00Z,30.6671,-87.9365,20.87,1111122 
DISL,ioos:station:DISL:MHPA:1,2017-05-01T02:00:00Z,30.6671,-87.9365,21.18,1111122 
DISL,ioos:station:DISL:MHPA:1,2017-05-01T02:30:00Z,30.6671,-87.9365,21.14,1111122 
DISL,ioos:station:DISL:MHPA:1,2017-05-01T03:00:00Z,30.6671,-87.9365,22.56,1111122 
DISL,ioos:station:DISL:MHPA:1,2017-05-01T03:30:00Z,30.6671,-87.9365,23.37,1111122 
DISL,ioos:station:DISL:MHPA:1,2017-05-01T04:00:00Z,30.6671,-87.9365,23.91,1111122 
DISL,ioos:station:DISL:MHPA:1,2017-05-01T04:30:00Z,30.6671,-87.9365,24.18,1111122 
DISL,ioos:station:DISL:MHPA:1,2017-05-01T05:00:00Z,30.6671,-87.9365,24.15,1111122 
DISL,ioos:station:DISL:MHPA:1,2017-05-01T05:30:00Z,30.6671,-87.9365,24.55,1111122 
DISL,ioos:station:DISL:MHPA:1,2017-05-01T06:00:00Z,30.6671,-87.9365,25.19,1111122 
DISL,ioos:station:DISL:MHPA:1,2017-05-01T06:30:00Z,30.6671,-87.9365,24.91,1111122 
DISL,ioos:station:DISL:MHPA:1,2017-05-01T07:00:00Z,30.6671,-87.9365,24.84,1111122 
DISL,ioos:station:DISL:MHPA:1,2017-05-01T07:30:00Z,30.6671,-87.9365,23.72,1111122 
DISL,ioos:station:DISL:MHPA:1,2017-05-01T08:00:00Z,30.6671,-87.9365,23.97,1111122 
DISL,ioos:station:DISL:MHPA:1,2017-05-01T08:30:00Z,30.6671,-87.9365,17.63,1111122 
DISL,ioos:station:DISL:MHPA:1,2017-05-01T09:00:00Z,30.6671,-87.9365,16.29,1111122 
DISL,ioos:station:DISL:MHPA:1,2017-05-01T09:30:00Z,30.6671,-87.9365,16.4,1111122 
DISL,ioos:station:DISL:MHPA:1,2017-05-01T10:00:00Z,30.6671,-87.9365,16.65,1111122 
DISL,ioos:station:DISL:MHPA:1,2017-05-01T10:30:00Z,30.6671,-87.9365,16.31,1111122 
DISL,ioos:station:DISL:MHPA:1,2017-05-01T11:00:00Z,30.6671,-87.9365,16.45,1111122 
DISL,ioos:station:DISL:MHPA:1,2017-05-01T11:30:00Z,30.6671,-87.9365,16.35,1111122 
DISL,ioos:station:DISL:MHPA:1,2017-05-01T12:00:00Z,30.6671,-87.9365,16.52,1111122 
DISL,ioos:station:DISL:MHPA:1,2017-05-01T12:30:00Z,30.6671,-87.9365,16.96,1111122 
DISL,ioos:station:DISL:MHPA:1,2017-05-01T13:00:00Z,30.6671,-87.9365,17.16,1111122 
DISL,ioos:station:DISL:MHPA:1,2017-05-01T13:30:00Z,30.6671,-87.9365,17.76,1111122 
DISL,ioos:station:DISL:MHPA:1,2017-05-01T14:00:00Z,30.6671,-87.9365,18.6,1111122 
DISL,ioos:station:DISL:MHPA:1,2017-05-01T14:30:00Z,30.6671,-87.9365,19.3,1111122 
DISL,ioos:station:DISL:MHPA:1,2017-05-01T15:00:00Z,30.6671,-87.9365,19.46,1111122 
DISL,ioos:station:DISL:MHPA:1,2017-05-01T15:30:00Z,30.6671,-87.9365,20.16,1111122 
DISL,ioos:station:DISL:MHPA:1,2017-05-01T16:00:00Z,30.6671,-87.9365,20.36,1111122 
DISL,ioos:station:DISL:MHPA:1,2017-05-01T16:30:00Z,30.6671,-87.9365,21.1,1111122 
DISL,ioos:station:DISL:MHPA:1,2017-05-01T17:00:00Z,30.6671,-87.9365,22.44,1111122 
DISL,ioos:station:DISL:MHPA:1,2017-05-01T17:30:00Z,30.6671,-87.9365,23.08,1111122 
DISL,ioos:station:DISL:MHPA:1,2017-05-01T18:00:00Z,30.6671,-87.9365,23.42,1111122 
DISL,ioos:station:DISL:MHPA:1,2017-05-01T18:30:00Z,30.6671,-87.9365,23.85,1111122 
DISL,ioos:station:DISL:MHPA:1,2017-05-01T19:00:00Z,30.6671,-87.9365,24.43,1111122 
DISL,ioos:station:DISL:MHPA:1,2017-05-01T19:30:00Z,30.6671,-87.9365,24.61,1111122 
DISL,ioos:station:DISL:MHPA:1,2017-05-01T20:00:00Z,30.6671,-87.9365,24.78,1111122 
DISL,ioos:station:DISL:MHPA:1,2017-05-01T20:30:00Z,30.6671,-87.9365,24.64,1111122 
DISL,ioos:station:DISL:MHPA:1,2017-05-01T21:00:00Z,30.6671,-87.9365,24.51,1111122 
DISL,ioos:station:DISL:MHPA:1,2017-05-01T21:30:00Z,30.6671,-87.9365,24.41,1111122 
DISL,ioos:station:DISL:MHPA:1,2017-05-01T22:00:00Z,30.6671,-87.9365,24.51,1111122 
DISL,ioos:station:DISL:MHPA:1,2017-05-01T22:30:00Z,30.6671,-87.9365,24.41,1111122 
DISL,ioos:station:DISL:MHPA:1,2017-05-01T23:00:00Z,30.6671,-87.9365,24.27,1111122 
DISL,ioos:station:DISL:MHPA:1,2017-05-01T23:30:00Z,30.6671,-87.9365,24.44,1111122 
DISL,ioos:station:DISL:MHPA:1,2017-05-02T00:00:00Z,30.6671,-87.9365,25.05,1111122 
DISL,ioos:station:DISL:MHPA:1,2017-05-02T00:30:00Z,30.6671,-87.9365,24.36,1111122 
DISL,ioos:station:DISL:MHPA:1,2017-05-02T01:00:00Z,30.6671,-87.9365,22.68,1111122 
DISL,ioos:station:DISL:MHPA:1,2017-05-02T01:30:00Z,30.6671,-87.9365,21.98,1111122 
DISL,ioos:station:DISL:MHPA:1,2017-05-02T02:00:00Z,30.6671,-87.9365,21.96,1111122 
DISL,ioos:station:DISL:MHPA:1,2017-05-02T02:30:00Z,30.6671,-87.9365,23.1,1111122 
DISL,ioos:station:DISL:MHPA:1,2017-05-02T03:00:00Z,30.6671,-87.9365,22.73,1111122 
DISL,ioos:station:DISL:MHPA:1,2017-05-02T03:30:00Z,30.6671,-87.9365,22.15,1111122 
DISL,ioos:station:DISL:MHPA:1,2017-05-02T04:00:00Z,30.6671,-87.9365,21.07,1111122 
DISL,ioos:station:DISL:MHPA:1,2017-05-02T04:30:00Z,30.6671,-87.9365,20.0,1111122 
DISL,ioos:station:DISL:MHPA:1,2017-05-02T05:00:00Z,30.6671,-87.9365,19.24,1111122 
DISL,ioos:station:DISL:MHPA:1,2017-05-02T05:30:00Z,30.6671,-87.9365,19.37,1111122 
DISL,ioos:station:DISL:MHPA:1,2017-05-02T06:00:00Z,30.6671,-87.9365,18.8,1111122 
DISL,ioos:station:DISL:MHPA:1,2017-05-02T06:30:00Z,30.6671,-87.9365,18.47,1111122 
DISL,ioos:station:DISL:MHPA:1,2017-05-02T07:00:00Z,30.6671,-87.9365,18.2,1111122 
DISL,ioos:station:DISL:MHPA:1,2017-05-02T07:30:00Z,30.6671,-87.9365,17.87,1111122 
DISL,ioos:station:DISL:MHPA:1,2017-05-02T08:00:00Z,30.6671,-87.9365,17.7,1111122 
DISL,ioos:station:DISL:MHPA:1,2017-05-02T08:30:00Z,30.6671,-87.9365,17.47,1111122 
DISL,ioos:station:DISL:MHPA:1,2017-05-02T09:00:00Z,30.6671,-87.9365,17.36,1111122 
DISL,ioos:station:DISL:MHPA:1,2017-05-02T09:30:00Z,30.6671,-87.9365,17.2,1111122 
DISL,ioos:station:DISL:MHPA:1,2017-05-02T10:00:00Z,30.6671,-87.9365,16.86,1111122 
DISL,ioos:station:DISL:MHPA:1,2017-05-02T10:30:00Z,30.6671,-87.9365,16.72,1111122 
DISL,ioos:station:DISL:MHPA:1,2017-05-02T11:00:00Z,30.6671,-87.9365,16.52,1111122 
DISL,ioos:station:DISL:MHPA:1,2017-05-02T11:30:00Z,30.6671,-87.9365,16.08,1111122 
DISL,ioos:station:DISL:MHPA:1,2017-05-02T12:00:00Z,30.6671,-87.9365,17.26,1111122 
DISL,ioos:station:DISL:MHPA:1,2017-05-02T12:30:00Z,30.6671,-87.9365,19.25,1111122 
DISL,ioos:station:DISL:MHPA:1,2017-05-02T13:00:00Z,30.6671,-87.9365,21.08,1111122 
DISL,ioos:station:DISL:MHPA:1,2017-05-02T13:30:00Z,30.6671,-87.9365,22.93,1111122 
DISL,ioos:station:DISL:MHPA:1,2017-05-02T14:00:00Z,30.6671,-87.9365,22.37,1111122 
DISL,ioos:station:DISL:MHPA:1,2017-05-02T14:30:00Z,30.6671,-87.9365,22.47,1111122 
DISL,ioos:station:DISL:MHPA:1,2017-05-02T15:00:00Z,30.6671,-87.9365,22.72,1111122 
DISL,ioos:station:DISL:MHPA:1,2017-05-02T15:30:00Z,30.6671,-87.9365,23.19,1111122 
DISL,ioos:station:DISL:MHPA:1,2017-05-02T16:00:00Z,30.6671,-87.9365,23.67,1111122 
DISL,ioos:station:DISL:MHPA:1,2017-05-02T16:30:00Z,30.6671,-87.9365,23.97,1111122 
DISL,ioos:station:DISL:MHPA:1,2017-05-02T17:00:00Z,30.6671,-87.9365,24.44,1111122 
DISL,ioos:station:DISL:MHPA:1,2017-05-02T17:30:00Z,30.6671,-87.9365,24.61,1111122 
DISL,ioos:station:DISL:MHPA:1,2017-05-02T18:00:00Z,30.6671,-87.9365,25.02,1111122 
DISL,ioos:station:DISL:MHPA:1,2017-05-02T18:30:00Z,30.6671,-87.9365,25.15,1111122 
DISL,ioos:station:DISL:MHPA:1,2017-05-02T19:00:00Z,30.6671,-87.9365,25.59,1111122 
DISL,ioos:station:DISL:MHPA:1,2017-05-02T19:30:00Z,30.6671,-87.9365,26.06,1111122 
DISL,ioos:station:DISL:MHPA:1,2017-05-02T20:00:00Z,30.6671,-87.9365,26.56,1111122 
DISL,ioos:station:DISL:MHPA:1,2017-05-02T20:30:00Z,30.6671,-87.9365,25.74,1111122 
DISL,ioos:station:DISL:MHPA:1,2017-05-02T21:00:00Z,30.6671,-87.9365,25.45,1111122 
DISL,ioos:station:DISL:MHPA:1,2017-05-02T21:30:00Z,30.6671,-87.9365,25.42,1111122 
DISL,ioos:station:DISL:MHPA:1,2017-05-02T22:00:00Z,30.6671,-87.9365,25.32,1111122 
DISL,ioos:station:DISL:MHPA:1,2017-05-02T22:30:00Z,30.6671,-87.9365,25.55,1111122 
DISL,ioos:station:DISL:MHPA:1,2017-05-02T23:00:00Z,30.6671,-87.9365,25.72,1111122 
DISL,ioos:station:DISL:MHPA:1,2017-05-02T23:30:00Z,30.6671,-87.9365,25.72,1111122 
DISL,ioos:station:DISL:MHPA:1,2017-05-03T00:00:00Z,30.6671,-87.9365,25.69,1111122 
DISL,ioos:station:DISL:MHPA:1,2017-05-03T00:30:00Z,30.6671,-87.9365,25.79,1111122 
DISL,ioos:station:DISL:MHPA:1,2017-05-03T01:00:00Z,30.6671,-87.9365,25.68,1111122 
DISL,ioos:station:DISL:MHPA:1,2017-05-03T01:30:00Z,30.6671,-87.9365,25.54,1111122 
DISL,ioos:station:DISL:MHPA:1,2017-05-03T02:00:00Z,30.6671,-87.9365,25.2,1111122 
DISL,ioos:station:DISL:MHPA:1,2017-05-03T02:30:00Z,30.6671,-87.9365,24.74,1111122 
DISL,ioos:station:DISL:MHPA:1,2017-05-03T03:00:00Z,30.6671,-87.9365,24.43,1111122 
DISL,ioos:station:DISL:MHPA:1,2017-05-03T03:30:00Z,30.6671,-87.9365,24.36,1111122 
DISL,ioos:station:DISL:MHPA:1,2017-05-03T04:00:00Z,30.6671,-87.9365,24.37,1111122 
DISL,ioos:station:DISL:MHPA:1,2017-05-03T04:30:00Z,30.6671,-87.9365,24.24,1111122 
DISL,ioos:station:DISL:MHPA:1,2017-05-03T05:00:00Z,30.6671,-87.9365,23.88,1111122 
DISL,ioos:station:DISL:MHPA:1,2017-05-03T05:30:00Z,30.6671,-87.9365,21.48,1111122 
DISL,ioos:station:DISL:MHPA:1,2017-05-03T06:00:00Z,30.6671,-87.9365,20.8,1111122 
DISL,ioos:station:DISL:MHPA:1,2017-05-03T06:30:00Z,30.6671,-87.9365,20.1,1111122 
DISL,ioos:station:DISL:MHPA:1,2017-05-03T07:00:00Z,30.6671,-87.9365,19.67,1111122 
DISL,ioos:station:DISL:MHPA:1,2017-05-03T07:30:00Z,30.6671,-87.9365,19.51,1111122 
DISL,ioos:station:DISL:MHPA:1,2017-05-03T08:00:00Z,30.6671,-87.9365,19.03,1111122 
DISL,ioos:station:DISL:MHPA:1,2017-05-03T08:30:00Z,30.6671,-87.9365,19.17,1111122 
DISL,ioos:station:DISL:MHPA:1,2017-05-03T09:00:00Z,30.6671,-87.9365,18.97,1111122 
DISL,ioos:station:DISL:MHPA:1,2017-05-03T09:30:00Z,30.6671,-87.9365,18.76,1111122 
DISL,ioos:station:DISL:MHPA:1,2017-05-03T10:00:00Z,30.6671,-87.9365,19.0,1111122 
DISL,ioos:station:DISL:MHPA:1,2017-05-03T10:30:00Z,30.6671,-87.9365,18.6,1111122 
DISL,ioos:station:DISL:MHPA:1,2017-05-03T11:00:00Z,30.6671,-87.9365,18.84,1111122 
DISL,ioos:station:DISL:MHPA:1,2017-05-03T11:30:00Z,30.6671,-87.9365,18.74,1111122 
DISL,ioos:station:DISL:MHPA:1,2017-05-03T12:00:00Z,30.6671,-87.9365,18.94,1111122 
DISL,ioos:station:DISL:MHPA:1,2017-05-03T12:30:00Z,30.6671,-87.9365,19.57,1111122 
DISL,ioos:station:DISL:MHPA:1,2017-05-03T13:00:00Z,30.6671,-87.9365,20.67,1111122 
DISL,ioos:station:DISL:MHPA:1,2017-05-03T13:30:00Z,30.6671,-87.9365,22.52,1111122 
DISL,ioos:station:DISL:MHPA:1,2017-05-03T14:00:00Z,30.6671,-87.9365,23.86,1111122 
DISL,ioos:station:DISL:MHPA:1,2017-05-03T14:30:00Z,30.6671,-87.9365,24.46,1111122 
DISL,ioos:station:DISL:MHPA:1,2017-05-03T15:00:00Z,30.6671,-87.9365,25.37,1111122 
DISL,ioos:station:DISL:MHPA:1,2017-05-03T15:30:00Z,30.6671,-87.9365,25.99,1111122 
DISL,ioos:station:DISL:MHPA:1,2017-05-03T16:00:00Z,30.6671,-87.9365,26.26,1111122 
DISL,ioos:station:DISL:MHPA:1,2017-05-03T16:30:00Z,30.6671,-87.9365,26.77,1111122 
DISL,ioos:station:DISL:MHPA:1,2017-05-03T17:00:00Z,30.6671,-87.9365,27.21,1111122 
DISL,ioos:station:DISL:MHPA:1,2017-05-03T17:30:00Z,30.6671,-87.9365,26.97,1111122 
DISL,ioos:station:DISL:MHPA:1,2017-05-03T18:00:00Z,30.6671,-87.9365,26.97,1111122 
DISL,ioos:station:DISL:MHPA:1,2017-05-03T18:30:00Z,30.6671,-87.9365,26.57,1111122 
DISL,ioos:station:DISL:MHPA:1,2017-05-03T19:00:00Z,30.6671,-87.9365,26.36,1111122 
DISL,ioos:station:DISL:MHPA:1,2017-05-03T19:30:00Z,30.6671,-87.9365,25.45,1111122 
DISL,ioos:station:DISL:MHPA:1,2017-05-03T20:00:00Z,30.6671,-87.9365,25.49,1111122 
DISL,ioos:station:DISL:MHPA:1,2017-05-03T20:30:00Z,30.6671,-87.9365,25.23,1111122 
DISL,ioos:station:DISL:MHPA:1,2017-05-03T21:00:00Z,30.6671,-87.9365,25.31,1111122 
DISL,ioos:station:DISL:MHPA:1,2017-05-03T21:30:00Z,30.6671,-87.9365,24.36,1111122 
DISL,ioos:station:DISL:MHPA:1,2017-05-03T22:00:00Z,30.6671,-87.9365,21.66,1111122 
DISL,ioos:station:DISL:MHPA:1,2017-05-03T22:30:00Z,30.6671,-87.9365,21.55,1111122 
DISL,ioos:station:DISL:MHPA:1,2017-05-03T23:00:00Z,30.6671,-87.9365,20.74,1111122 
DISL,ioos:station:DISL:MHPA:1,2017-05-03T23:30:00Z,30.6671,-87.9365,20.17,1111122 
DISL,ioos:station:DISL:MHPA:1,2017-05-04T00:00:00Z,30.6671,-87.9365,19.1,1111122 
DISL,ioos:station:DISL:MHPA:1,2017-05-04T00:30:00Z,30.6671,-87.9365,19.14,1111122 
DISL,ioos:station:DISL:MHPA:1,2017-05-04T01:00:00Z,30.6671,-87.9365,19.3,1111122 
DISL,ioos:station:DISL:MHPA:1,2017-05-04T01:30:00Z,30.6671,-87.9365,19.61,1111122 
DISL,ioos:station:DISL:MHPA:1,2017-05-04T02:00:00Z,30.6671,-87.9365,20.11,1111122 
DISL,ioos:station:DISL:MHPA:1,2017-05-04T02:30:00Z,30.6671,-87.9365,20.55,1111122 
DISL,ioos:station:DISL:MHPA:1,2017-05-04T03:00:00Z,30.6671,-87.9365,20.65,1111122 
DISL,ioos:station:DISL:MHPA:1,2017-05-04T03:30:00Z,30.6671,-87.9365,20.76,1111122 
DISL,ioos:station:DISL:MHPA:1,2017-05-04T04:00:00Z,30.6671,-87.9365,19.84,1111122 
DISL,ioos:station:DISL:MHPA:1,2017-05-04T04:30:00Z,30.6671,-87.9365,19.34,1111122 
DISL,ioos:station:DISL:MHPA:1,2017-05-04T05:00:00Z,30.6671,-87.9365,19.34,1111122 
DISL,ioos:station:DISL:MHPA:1,2017-05-04T05:30:00Z,30.6671,-87.9365,19.2,1111122 
DISL,ioos:station:DISL:MHPA:1,2017-05-04T06:00:00Z,30.6671,-87.9365,18.32,1111122 
DISL,ioos:station:DISL:MHPA:1,2017-05-04T06:30:00Z,30.6671,-87.9365,17.18,1111122 
DISL,ioos:station:DISL:MHPA:1,2017-05-04T07:00:00Z,30.6671,-87.9365,16.98,1111122 
DISL,ioos:station:DISL:MHPA:1,2017-05-04T07:30:00Z,30.6671,-87.9365,16.82,1111122 
DISL,ioos:station:DISL:MHPA:1,2017-05-04T08:00:00Z,30.6671,-87.9365,16.14,1111122 
DISL,ioos:station:DISL:MHPA:1,2017-05-04T08:30:00Z,30.6671,-87.9365,16.22,1111122 
DISL,ioos:station:DISL:MHPA:1,2017-05-04T09:00:00Z,30.6671,-87.9365,15.91,1111122 
DISL,ioos:station:DISL:MHPA:1,2017-05-04T09:30:00Z,30.6671,-87.9365,15.95,1111122 
DISL,ioos:station:DISL:MHPA:1,2017-05-04T10:00:00Z,30.6671,-87.9365,16.01,1111122 
DISL,ioos:station:DISL:MHPA:1,2017-05-04T10:30:00Z,30.6671,-87.9365,16.11,1111122 
DISL,ioos:station:DISL:MHPA:1,2017-05-04T11:00:00Z,30.6671,-87.9365,16.49,1111122 
DISL,ioos:station:DISL:MHPA:1,2017-05-04T11:30:00Z,30.6671,-87.9365,16.49,1111122 
DISL,ioos:station:DISL:MHPA:1,2017-05-04T12:00:00Z,30.6671,-87.9365,17.33,1111122 
DISL,ioos:station:DISL:MHPA:1,2017-05-04T12:30:00Z,30.6671,-87.9365,18.11,1111122 
DISL,ioos:station:DISL:MHPA:1,2017-05-04T13:00:00Z,30.6671,-87.9365,18.44,1111122 
DISL,ioos:station:DISL:MHPA:1,2017-05-04T13:30:00Z,30.6671,-87.9365,19.65,1111122 
DISL,ioos:station:DISL:MHPA:1,2017-05-04T14:00:00Z,30.6671,-87.9365,19.61,1111122 
DISL,ioos:station:DISL:MHPA:1,2017-05-04T14:30:00Z,30.6671,-87.9365,20.2,1111122 
DISL,ioos:station:DISL:MHPA:1,2017-05-04T15:00:00Z,30.6671,-87.9365,20.47,1111122 
DISL,ioos:station:DISL:MHPA:1,2017-05-04T15:30:00Z,30.6671,-87.9365,21.07,1111122 
DISL,ioos:station:DISL:MHPA:1,2017-05-04T16:00:00Z,30.6671,-87.9365,22.12,1111122 
DISL,ioos:station:DISL:MHPA:1,2017-05-04T16:30:00Z,30.6671,-87.9365,21.58,1111122 
DISL,ioos:station:DISL:MHPA:1,2017-05-04T17:00:00Z,30.6671,-87.9365,21.55,1111122 
DISL,ioos:station:DISL:MHPA:1,2017-05-04T17:30:00Z,30.6671,-87.9365,21.72,1111122 
DISL,ioos:station:DISL:MHPA:1,2017-05-04T18:00:00Z,30.6671,-87.9365,21.85,1111122 
DISL,ioos:station:DISL:MHPA:1,2017-05-04T18:30:00Z,30.6671,-87.9365,22.08,1111122 
DISL,ioos:station:DISL:MHPA:1,2017-05-04T19:00:00Z,30.6671,-87.9365,22.24,1111122 
DISL,ioos:station:DISL:MHPA:1,2017-05-04T19:30:00Z,30.6671,-87.9365,22.54,1111122 
DISL,ioos:station:DISL:MHPA:1,2017-05-04T20:00:00Z,30.6671,-87.9365,18.96,1111122 
DISL,ioos:station:DISL:MHPA:1,2017-05-04T20:30:00Z,30.6671,-87.9365,18.54,1111122 
DISL,ioos:station:DISL:MHPA:1,2017-05-04T21:00:00Z,30.6671,-87.9365,18.07,1111122 
DISL,ioos:station:DISL:MHPA:1,2017-05-04T21:30:00Z,30.6671,-87.9365,18.07,1111122 
DISL,ioos:station:DISL:MHPA:1,2017-05-04T22:00:00Z,30.6671,-87.9365,19.15,1111122 
DISL,ioos:station:DISL:MHPA:1,2017-05-04T22:30:00Z,30.6671,-87.9365,18.11,1111122 
DISL,ioos:station:DISL:MHPA:1,2017-05-04T23:00:00Z,30.6671,-87.9365,17.63,1111122 
DISL,ioos:station:DISL:MHPA:1,2017-05-04T23:30:00Z,30.6671,-87.9365,17.41,1111122 
DISL,ioos:station:DISL:MHPA:1,2017-05-05T00:00:00Z,30.6671,-87.9365,16.6,1111122 
DISL,ioos:station:DISL:MHPA:1,2017-05-05T00:30:00Z,30.6671,-87.9365,16.27,1111122 
DISL,ioos:station:DISL:MHPA:1,2017-05-05T01:00:00Z,30.6671,-87.9365,16.0,1111122 
DISL,ioos:station:DISL:MHPA:1,2017-05-05T01:30:00Z,30.6671,-87.9365,15.67,1111122 
DISL,ioos:station:DISL:MHPA:1,2017-05-05T02:00:00Z,30.6671,-87.9365,15.41,1111122 
DISL,ioos:station:DISL:MHPA:1,2017-05-05T02:30:00Z,30.6671,-87.9365,14.9,1111122 
DISL,ioos:station:DISL:MHPA:1,2017-05-05T03:00:00Z,30.6671,-87.9365,14.39,1111122 
DISL,ioos:station:DISL:MHPA:1,2017-05-05T03:30:00Z,30.6671,-87.9365,13.75,1111122 
DISL,ioos:station:DISL:MHPA:1,2017-05-05T04:00:00Z,30.6671,-87.9365,13.52,1111122 
DISL,ioos:station:DISL:MHPA:1,2017-05-05T04:30:00Z,30.6671,-87.9365,13.29,1111122 
DISL,ioos:station:DISL:MHPA:1,2017-05-05T05:00:00Z,30.6671,-87.9365,12.58,1111122 
DISL,ioos:station:DISL:MHPA:1,2017-05-05T05:30:00Z,30.6671,-87.9365,12.25,1111122 
DISL,ioos:station:DISL:MHPA:1,2017-05-05T06:00:00Z,30.6671,-87.9365,12.25,1111122 
DISL,ioos:station:DISL:MHPA:1,2017-05-05T06:30:00Z,30.6671,-87.9365,12.08,1111122 
DISL,ioos:station:DISL:MHPA:1,2017-05-05T07:00:00Z,30.6671,-87.9365,12.02,1111122 
DISL,ioos:station:DISL:MHPA:1,2017-05-05T07:30:00Z,30.6671,-87.9365,11.95,1111122 
DISL,ioos:station:DISL:MHPA:1,2017-05-05T08:00:00Z,30.6671,-87.9365,11.68,1111122 
DISL,ioos:station:DISL:MHPA:1,2017-05-05T08:30:00Z,30.6671,-87.9365,11.81,1111122 
DISL,ioos:station:DISL:MHPA:1,2017-05-05T09:00:00Z,30.6671,-87.9365,11.57,1111122 
DISL,ioos:station:DISL:MHPA:1,2017-05-05T09:30:00Z,30.6671,-87.9365,11.61,1111122 
DISL,ioos:station:DISL:MHPA:1,2017-05-05T10:00:00Z,30.6671,-87.9365,11.74,1111122 
DISL,ioos:station:DISL:MHPA:1,2017-05-05T10:30:00Z,30.6671,-87.9365,11.64,1111122 
DISL,ioos:station:DISL:MHPA:1,2017-05-05T11:00:00Z,30.6671,-87.9365,12.12,1111122 
DISL,ioos:station:DISL:MHPA:1,2017-05-05T11:30:00Z,30.6671,-87.9365,12.83,1111122 
DISL,ioos:station:DISL:MHPA:1,2017-05-05T12:00:00Z,30.6671,-87.9365,12.96,1111122 
DISL,ioos:station:DISL:MHPA:1,2017-05-05T12:30:00Z,30.6671,-87.9365,13.16,1111122 
DISL,ioos:station:DISL:MHPA:1,2017-05-05T13:00:00Z,30.6671,-87.9365,13.82,1111122 
DISL,ioos:station:DISL:MHPA:1,2017-05-05T13:30:00Z,30.6671,-87.9365,14.46,1111122 
DISL,ioos:station:DISL:MHPA:1,2017-05-05T14:00:00Z,30.6671,-87.9365,14.59,1111122 
DISL,ioos:station:DISL:MHPA:1,2017-05-05T14:30:00Z,30.6671,-87.9365,15.17,1111122 
DISL,ioos:station:DISL:MHPA:1,2017-05-05T15:00:00Z,30.6671,-87.9365,16.24,1111122 
DISL,ioos:station:DISL:MHPA:1,2017-05-05T15:30:00Z,30.6671,-87.9365,16.58,1111122 
DISL,ioos:station:DISL:MHPA:1,2017-05-05T16:00:00Z,30.6671,-87.9365,16.54,1111122 
DISL,ioos:station:DISL:MHPA:1,2017-05-05T16:30:00Z,30.6671,-87.9365,16.54,1111122 
DISL,ioos:station:DISL:MHPA:1,2017-05-05T17:00:00Z,30.6671,-87.9365,17.65,1111122 
DISL,ioos:station:DISL:MHPA:1,2017-05-05T17:30:00Z,30.6671,-87.9365,17.08,1111122 
DISL,ioos:station:DISL:MHPA:1,2017-05-05T18:00:00Z,30.6671,-87.9365,17.11,1111122 
DISL,ioos:station:DISL:MHPA:1,2017-05-05T18:30:00Z,30.6671,-87.9365,17.14,1111122 
DISL,ioos:station:DISL:MHPA:1,2017-05-05T19:00:00Z,30.6671,-87.9365,16.84,1111122 
DISL,ioos:station:DISL:MHPA:1,2017-05-05T19:30:00Z,30.6671,-87.9365,17.48,1111122 
DISL,ioos:station:DISL:MHPA:1,2017-05-05T20:00:00Z,30.6671,-87.9365,18.09,1111122 
DISL,ioos:station:DISL:MHPA:1,2017-05-05T20:30:00Z,30.6671,-87.9365,18.14,1111122 
DISL,ioos:station:DISL:MHPA:1,2017-05-05T21:00:00Z,30.6671,-87.9365,19.18,1111122 
DISL,ioos:station:DISL:MHPA:1,2017-05-05T21:30:00Z,30.6671,-87.9365,19.93,1111122 
DISL,ioos:station:DISL:MHPA:1,2017-05-05T22:00:00Z,30.6671,-87.9365,20.94,1111122 
DISL,ioos:station:DISL:MHPA:1,2017-05-05T22:30:00Z,30.6671,-87.9365,20.9,1111122 
DISL,ioos:station:DISL:MHPA:1,2017-05-05T23:00:00Z,30.6671,-87.9365,20.7,1111122 
DISL,ioos:station:DISL:MHPA:1,2017-05-05T23:30:00Z,30.6671,-87.9365,20.8,1111122 
DISL,ioos:station:DISL:MHPA:1,2017-05-06T00:00:00Z,30.6671,-87.9365,20.26,1111122 
DISL,ioos:station:DISL:MHPA:1,2017-05-06T00:30:00Z,30.6671,-87.9365,19.66,1111122 
DISL,ioos:station:DISL:MHPA:1,2017-05-06T01:00:00Z,30.6671,-87.9365,19.33,1111122 
DISL,ioos:station:DISL:MHPA:1,2017-05-06T01:30:00Z,30.6671,-87.9365,18.63,1111122 
DISL,ioos:station:DISL:MHPA:1,2017-05-06T02:00:00Z,30.6671,-87.9365,18.12,1111122 
DISL,ioos:station:DISL:MHPA:1,2017-05-06T02:30:00Z,30.6671,-87.9365,17.66,1111122 
DISL,ioos:station:DISL:MHPA:1,2017-05-06T03:00:00Z,30.6671,-87.9365,17.76,1111122 
DISL,ioos:station:DISL:MHPA:1,2017-05-06T03:30:00Z,30.6671,-87.9365,17.06,1111122 
DISL,ioos:station:DISL:MHPA:1,2017-05-06T04:00:00Z,30.6671,-87.9365,16.62,1111122 
DISL,ioos:station:DISL:MHPA:1,2017-05-06T04:30:00Z,30.6671,-87.9365,16.05,1111122 
DISL,ioos:station:DISL:MHPA:1,2017-05-06T05:00:00Z,30.6671,-87.9365,15.88,1111122 
DISL,ioos:station:DISL:MHPA:1,2017-05-06T05:30:00Z,30.6671,-87.9365,14.6,1111122 
DISL,ioos:station:DISL:MHPA:1,2017-05-06T06:00:00Z,30.6671,-87.9365,15.12,1111122 
DISL,ioos:station:DISL:MHPA:1,2017-05-06T06:30:00Z,30.6671,-87.9365,14.58,1111122 
DISL,ioos:station:DISL:MHPA:1,2017-05-06T07:00:00Z,30.6671,-87.9365,14.41,1111122 
DISL,ioos:station:DISL:MHPA:1,2017-05-06T07:30:00Z,30.6671,-87.9365,13.57,1111122 
DISL,ioos:station:DISL:MHPA:1,2017-05-06T08:00:00Z,30.6671,-87.9365,14.21,1111122 
DISL,ioos:station:DISL:MHPA:1,2017-05-06T08:30:00Z,30.6671,-87.9365,13.81,1111122 
DISL,ioos:station:DISL:MHPA:1,2017-05-06T09:00:00Z,30.6671,-87.9365,13.34,1111122 
DISL,ioos:station:DISL:MHPA:1,2017-05-06T09:30:00Z,30.6671,-87.9365,12.96,1111122 
DISL,ioos:station:DISL:MHPA:1,2017-05-06T10:00:00Z,30.6671,-87.9365,12.42,1111122 
DISL,ioos:station:DISL:MHPA:1,2017-05-06T10:30:00Z,30.6671,-87.9365,12.46,1111122 
DISL,ioos:station:DISL:MHPA:1,2017-05-06T11:00:00Z,30.6671,-87.9365,12.09,1111122 
DISL,ioos:station:DISL:MHPA:1,2017-05-06T11:30:00Z,30.6671,-87.9365,12.16,1111122 
DISL,ioos:station:DISL:MHPA:1,2017-05-06T12:00:00Z,30.6671,-87.9365,14.25,1111122 
DISL,ioos:station:DISL:MHPA:1,2017-05-06T12:30:00Z,30.6671,-87.9365,14.71,1111122 
DISL,ioos:station:DISL:MHPA:1,2017-05-06T13:00:00Z,30.6671,-87.9365,14.63,1111122 
DISL,ioos:station:DISL:MHPA:1,2017-05-06T13:30:00Z,30.6671,-87.9365,15.29,1111122 
DISL,ioos:station:DISL:MHPA:1,2017-05-06T14:00:00Z,30.6671,-87.9365,15.99,1111122 
DISL,ioos:station:DISL:MHPA:1,2017-05-06T14:30:00Z,30.6671,-87.9365,16.52,1111122 
DISL,ioos:station:DISL:MHPA:1,2017-05-06T15:00:00Z,30.6671,-87.9365,17.26,1111122 
DISL,ioos:station:DISL:MHPA:1,2017-05-06T15:30:00Z,30.6671,-87.9365,17.73,1111122 
DISL,ioos:station:DISL:MHPA:1,2017-05-06T16:00:00Z,30.6671,-87.9365,18.27,1111122 
DISL,ioos:station:DISL:MHPA:1,2017-05-06T16:30:00Z,30.6671,-87.9365,18.98,1111122 
DISL,ioos:station:DISL:MHPA:1,2017-05-06T17:00:00Z,30.6671,-87.9365,19.45,1111122 
DISL,ioos:station:DISL:MHPA:1,2017-05-06T17:30:00Z,30.6671,-87.9365,19.82,1111122 
DISL,ioos:station:DISL:MHPA:1,2017-05-06T18:00:00Z,30.6671,-87.9365,20.13,1111122 
DISL,ioos:station:DISL:MHPA:1,2017-05-06T18:30:00Z,30.6671,-87.9365,20.5,1111122 
DISL,ioos:station:DISL:MHPA:1,2017-05-06T19:00:00Z,30.6671,-87.9365,20.67,1111122 
DISL,ioos:station:DISL:MHPA:1,2017-05-06T19:30:00Z,30.6671,-87.9365,21.01,1111122 
DISL,ioos:station:DISL:MHPA:1,2017-05-06T20:00:00Z,30.6671,-87.9365,21.24,1111122 
DISL,ioos:station:DISL:MHPA:1,2017-05-06T20:30:00Z,30.6671,-87.9365,21.7,1111122 
DISL,ioos:station:DISL:MHPA:1,2017-05-06T21:00:00Z,30.6671,-87.9365,21.76,1111122 
DISL,ioos:station:DISL:MHPA:1,2017-05-06T21:30:00Z,30.6671,-87.9365,22.24,1111122 
DISL,ioos:station:DISL:MHPA:1,2017-05-06T22:00:00Z,30.6671,-87.9365,22.64,1111122 
DISL,ioos:station:DISL:MHPA:1,2017-05-06T22:30:00Z,30.6671,-87.9365,23.04,1111122 
DISL,ioos:station:DISL:MHPA:1,2017-05-06T23:00:00Z,30.6671,-87.9365,22.67,1111122 
DISL,ioos:station:DISL:MHPA:1,2017-05-06T23:30:00Z,30.6671,-87.9365,22.54,1111122 